Theta_e
302 300 302 303 302 302 304 305 305 305 304 305 305 304 305 305 306 306 303 305 306 305 304 304 304 304 303 302 302 303 302 302 302 300 299 298 297 297 297 297 297 296 296 297 297 296 296 296 296 297 297 297 297 297 298 301 301 299 301 305 307 308 311 315 320 321 322 324 327 330 331 332 332 332 333 333 333 333 332 331 330 330 330 328 327 327
301 300 302 302 302 303 304 306 305 305 306 305 305 305 305 305 306 305 304 306 307 305 304 303 304 304 303 302 302 302 302 302 301 300 299 298 297 297 297 297 296 296 296 296 296 296 295 295 295 295 295 295 296 295 295 296 296 296 298 299 300 303 306 310 314 316 317 319 323 327 329 330 332 332 332 332 331 332 332 332 330 329 328 328 327 327
300 300 303 302 302 303 304 306 304 303 306 306 305 306 306 306 307 306 305 306 306 305 304 303 303 303 303 302 302 302 302 301 301 300 299 298 297 297 297 297 296 296 296 295 295 295 295 295 295 294 294 294 294 294 294 295 295 295 296 296 298 300 301 304 310 312 311 314 318 323 325 327 329 329 329 329 329 330 331 331 332 331 329 328 327 327
300 301 302 302 302 302 302 303 302 301 303 304 305 307 307 307 308 308 307 306 306 306 304 303 303 303 303 302 302 302 302 301 300 301 300 299 298 297 297 296 296 296 295 295 295 295 294 294 294 294 294 293 293 294 294 294 294 294 294 294 295 297 298 301 306 307 306 311 317 319 322 324 324 323 323 323 324 326 329 330 331 332 331 329 328 327
301 300 302 302 301 301 300 301 301 301 302 303 306 308 306 306 307 308 308 307 307 307 305 305 304 303 302 302 302 302 303 301 300 301 301 300 298 297 297 296 296 296 295 295 294 294 294 293 294 293 293 293 292 293 293 293 293 293 293 293 294 294 296 298 302 304 303 306 313 316 318 319 318 317 316 316 316 318 321 324 327 329 329 329 329 329
301 300 302 302 300 300 300 300 300 300 302 303 306 307 305 306 307 307 308 308 308 307 305 307 306 304 303 302 302 301 302 302 300 300 300 300 298 297 296 296 296 296 295 295 294 294 294 293 293 292 292 292 292 292 292 292 292 292 292 292 293 293 294 295 297 301 301 300 303 306 307 307 307 307 307 307 308 309 312 314 319 322 323 324 326 327
302 302 303 302 299 300 299 300 299 299 302 304 303 304 303 306 307 307 309 308 308 306 304 306 306 304 303 302 301 301 300 301 300 300 299 299 298 297 296 295 295 295 295 295 295 294 293 293 292 292 292 292 292 291 291 291 291 291 291 291 292 292 293 294 294 296 298 297 297 298 299 300 301 302 302 302 302 304 306 307 312 316 317 318 318 320
301 303 305 302 299 301 300 300 299 298 302 305 301 301 303 305 306 307 308 306 305 305 304 305 305 303 302 301 300 300 300 301 300 299 298 298 298 297 297 296 295 295 295 295 294 294 293 292 292 292 291 291 291 291 290 290 290 291 291 291 291 291 292 292 293 293 295 295 295 296 296 297 298 299 300 299 300 303 303 303 307 311 312 313 313 315
301 301 302 302 300 300 300 299 300 298 302 305 302 302 304 306 307 308 308 305 305 306 305 306 305 303 302 301 299 299 300 301 300 300 299 297 297 297 297 297 295 295 295 294 293 293 292 292 292 291 291 291 290 290 290 290 290 290 290 290 291 290 291 291 292 292 293 293 294 294 295 295 296 297 298 298 297 300 301 300 302 305 305 307 309 310
299 300 300 301 300 299 299 299 300 299 301 302 301 302 305 306 307 308 309 307 306 306 304 304 305 304 302 301 299 299 300 300 301 300 299 298 297 296 296 296 295 295 295 294 293 292 292 291 291 291 291 290 290 290 289 289 289 289 289 290 290 290 290 290 291 291 292 292 292 293 294 294 294 295 296 297 296 296 297 297 299 300 299 301 302 304
298 302 300 301 301 299 299 300 300 299 300 300 301 304 307 306 306 307 307 306 308 308 304 302 302 304 303 301 299 299 299 299 300 299 298 298 298 297 296 295 294 293 293 293 292 292 291 291 290 290 290 290 290 289 289 289 288 288 289 289 289 290 290 290 290 291 291 291 292 292 292 293 293 294 295 296 295 295 295 296 297 297 297 296 297 299
301 303 298 299 301 298 299 299 298 299 300 298 300 304 308 307 308 310 309 307 309 309 306 302 301 303 305 302 300 299 298 297 298 299 298 298 298 298 297 296 295 294 293 292 292 291 290 290 290 289 289 289 289 289 289 288 288 288 288 288 288 289 289 289 289 290 290 290 291 291 291 291 292 293 293 294 294 294 294 295 295 296 295 295 295 295
303 300 295 299 301 298 299 298 297 300 299 298 300 306 311 309 309 312 309 308 310 309 306 304 303 303 304 303 302 300 299 297 297 298 298 297 297 297 297 297 296 295 294 293 291 290 290 289 289 289 289 289 289 289 289 288 288 287 287 288 288 288 288 288 289 289 289 290 290 290 291 291 291 291 292 292 293 293 292 293 294 294 294 293 293 294
303 301 298 300 301 299 298 297 298 300 299 298 300 305 311 311 312 312 305 304 309 308 305 304 304 304 304 303 303 301 300 297 297 297 298 298 297 297 297 296 296 296 295 294 291 289 289 289 289 289 288 288 288 288 288 288 288 287 287 287 287 287 287 288 288 288 289 289 289 289 290 290 290 290 290 291 291 291 291 291 292 292 292 292 292 292
299 301 299 298 298 298 298 297 297 297 298 300 299 302 305 304 308 310 305 305 308 307 306 305 305 307 305 303 303 302 300 298 297 298 298 299 298 297 297 296 296 295 294 294 291 289 289 289 289 288 288 288 288 288 288 288 288 287 287 287 287 287 287 287 287 287 288 288 288 289 289 289 289 289 289 290 290 290 290 290 291 291 291 290 290 290
296 297 298 297 296 297 297 297 297 297 300 301 299 301 300 297 302 306 304 304 305 305 307 307 306 305 303 303 303 302 300 298 298 298 298 298 299 299 299 297 297 296 295 295 293 290 289 289 288 288 288 288 288 288 288 288 288 288 287 287 287 287 287 287 287 287 287 287 288 288 288 288 288 288 288 289 289 289 289 290 290 290 289 289 289 289
299 300 299 299 298 297 296 297 297 296 298 301 300 298 294 294 300 304 301 300 301 302 305 307 307 305 304 304 303 302 301 299 298 298 298 299 299 299 299 298 297 296 295 295 293 290 289 289 289 288 288 288 288 288 288 287 287 287 287 287 286 286 287 286 286 286 286 286 287 287 287 288 288 288 288 288 288 288 288 289 289 289 289 288 288 288
297 301 300 298 300 299 296 297 299 297 295 298 298 295 293 296 300 301 301 304 304 300 301 305 307 308 308 306 303 301 301 301 300 298 298 299 299 299 300 299 298 297 296 294 292 290 289 289 289 288 288 288 288 288 288 287 287 287 287 287 287 286 286 286 286 286 286 286 286 286 286 287 287 287 287 287 287 287 288 288 288 288 288 288 288 288
294 300 301 296 297 298 298 301 303 300 297 296 296 295 295 299 301 301 301 303 301 298 299 302 301 301 306 307 304 302 302 301 300 300 299 298 299 300 301 301 299 298 297 295 293 290 289 289 289 289 288 288 288 288 288 287 287 287 287 287 287 286 286 286 286 286 286 286 286 286 286 286 287 287 287 287 287 287 287 287 288 288 288 287 287 287
293 300 305 299 295 297 300 303 302 299 298 297 297 297 298 298 298 299 298 297 297 296 296 300 301 301 304 306 306 304 301 299 300 300 299 298 299 300 300 300 301 300 298 297 295 291 289 289 289 288 288 288 288 288 287 287 287 287 287 287 287 286 286 286 286 286 286 286 285 285 285 285 286 286 286 286 286 286 286 286 287 287 287 287 287 286
294 298 303 301 298 299 300 299 298 296 297 298 298 297 298 297 296 297 295 294 296 296 295 297 301 304 303 303 306 306 300 299 300 299 298 298 299 299 300 300 301 300 300 299 295 291 289 290 289 288 288 288 288 288 287 287 287 287 287 287 287 287 286 286 286 286 286 285 285 285 285 285 285 285 285 285 286 286 286 286 286 287 287 287 287 286
296 296 299 301 302 303 299 296 297 296 297 299 298 296 296 296 297 298 295 295 296 295 296 297 299 304 302 298 302 305 300 298 298 298 298 298 298 298 299 299 299 300 301 299 293 290 290 290 289 288 288 288 288 287 287 287 287 287 287 287 287 287 286 286 286 286 286 285 285 285 285 285 285 285 285 285 285 285 285 285 285 286 286 286 286 286
296 295 296 299 300 298 296 296 296 296 297 298 297 297 296 295 298 299 296 297 296 293 294 294 297 303 302 298 300 301 298 297 297 297 298 297 297 297 297 298 298 299 300 295 290 290 291 290 289 289 288 288 288 287 287 287 287 287 287 286 286 286 286 286 286 286 286 285 285 285 285 285 285 285 285 285 285 285 285 285 285 285 286 286 286 286
296 295 295 299 300 297 297 297 295 295 296 295 294 296 297 295 296 299 297 297 296 296 296 295 298 305 303 299 298 296 296 297 296 297 298 297 296 296 296 297 296 297 297 294 290 290 290 289 289 289 288 288 288 288 287 287 287 287 287 286 286 286 286 286 286 286 286 285 285 285 285 285 285 285 285 285 285 285 285 284 284 284 285 285 286 285
295 296 296 301 304 303 303 303 300 298 297 295 293 294 296 294 294 296 296 294 295 298 298 298 302 305 301 299 297 295 295 296 295 296 296 296 296 296 296 296 296 296 297 295 292 290 289 289 289 288 288 288 288 288 287 287 287 287 287 287 286 286 286 286 286 286 286 285 285 285 285 285 285 285 285 285 285 285 285 284 284 284 284 285 285 285
295 296 296 298 301 302 304 303 300 298 295 294 293 293 295 294 292 293 294 294 296 296 295 297 303 302 298 298 298 296 296 296 295 295 294 294 295 295 295 295 296 296 296 296 296 292 289 289 289 288 289 288 288 288 287 287 287 287 287 287 287 286 286 286 286 286 286 286 285 285 285 285 285 285 285 285 285 285 285 284 284 284 284 284 285 284
295 293 293 295 298 299 299 297 294 293 293 293 293 292 293 292 291 292 294 295 296 296 295 296 298 297 296 295 296 296 297 296 295 295 294 294 294 294 294 294 295 295 295 296 296 293 290 288 288 289 289 288 288 288 288 288 287 287 287 287 287 287 287 286 286 286 286 286 285 285 285 285 285 285 285 285 285 285 284 284 284 284 284 284 284 284
294 292 292 293 293 293 293 292 291 291 291 291 291 291 291 291 292 293 294 294 294 295 296 295 293 294 294 294 294 296 296 296 296 295 294 294 293 293 293 293 294 294 294 296 295 295 294 290 287 288 288 288 288 288 288 288 288 287 287 288 288 287 287 287 286 286 285 285 285 285 285 285 285 285 285 285 285 285 284 284 284 284 284 284 284 284
293 293 293 290 290 291 290 290 291 290 290 290 290 290 290 290 292 292 292 292 292 294 295 294 293 294 294 293 294 295 295 295 295 294 294 294 293 293 292 292 293 292 293 293 293 295 295 289 286 287 288 288 288 288 288 288 288 287 287 288 288 287 287 287 287 286 286 285 285 285 285 285 285 285 285 285 284 284 284 284 284 284 284 284 284 284
291 294 293 290 290 291 289 289 290 289 290 289 289 290 290 289 290 291 291 291 291 292 293 292 292 292 292 292 292 292 293 293 292 292 293 293 293 293 292 292 292 291 291 292 293 293 290 286 287 288 288 288 288 288 288 288 288 288 288 288 288 287 287 287 287 286 286 285 285 285 285 285 285 285 285 285 284 284 284 284 284 284 284 283 283 283
289 293 293 291 292 292 290 290 290 289 289 290 290 290 290 290 290 290 290 290 291 291 291 291 291 291 291 292 292 292 292 293 293 293 293 292 293 293 293 292 291 291 291 291 292 293 288 285 286 287 287 288 288 288 288 288 288 288 288 288 288 287 287 287 287 286 286 286 285 285 285 285 285 285 285 285 285 284 284 284 284 284 283 283 283 283
289 292 293 292 294 296 292 289 291 290 290 291 293 293 291 291 291 290 290 290 291 291 291 291 291 291 291 292 293 294 294 294 294 294 294 293 293 293 293 293 292 291 291 290 292 293 289 285 285 286 287 288 288 288 288 288 288 288 288 288 288 287 287 287 287 286 286 286 285 285 285 285 285 285 285 285 285 285 285 284 284 284 284 284 283 283
290 293 294 291 294 298 293 289 290 290 293 299 300 298 295 293 291 291 290 290 290 291 291 292 293 292 292 293 294 295 295 296 295 295 294 294 294 293 293 293 292 291 291 290 291 292 289 286 286 287 288 288 288 288 288 288 288 288 288 288 288 287 287 287 287 286 286 285 285 285 285 285 285 285 285 285 285 285 285 285 284 284 284 284 284 283
290 293 293 290 293 297 293 290 290 293 300 306 301 296 296 295 292 292 293 292 291 291 291 292 293 293 293 294 294 294 295 295 295 295 295 294 294 294 293 292 292 291 290 291 290 288 286 286 287 288 288 288 289 289 289 288 288 288 288 288 287 287 287 287 286 286 286 285 285 285 285 285 285 285 284 284 284 284 284 284 284 284 284 284 284 283
291 292 292 290 291 293 291 291 297 302 305 302 295 292 295 295 293 293 294 293 292 291 292 292 292 292 292 293 293 294 294 294 294 295 294 293 293 294 293 292 291 290 291 291 289 286 286 287 288 288 288 289 289 289 289 288 288 288 288 288 287 287 287 286 286 286 285 285 285 285 285 284 284 284 284 284 284 284 284 284 284 284 284 283 283 283
291 291 291 290 290 292 292 295 302 304 299 295 294 293 294 294 293 293 294 294 293 293 292 292 292 292 292 292 292 293 293 293 293 293 292 291 292 292 292 292 292 291 290 289 288 287 287 288 289 289 289 289 289 289 289 288 288 288 288 287 287 287 287 286 286 285 285 285 285 285 285 284 284 284 284 284 284 284 284 284 284 283 283 283 282 282
290 291 291 290 291 293 294 295 296 296 296 299 298 294 293 295 294 294 295 296 295 294 293 293 292 292 292 292 292 293 292 290 291 291 291 292 293 291 290 290 290 289 288 288 289 289 289 290 289 289 289 289 289 289 288 288 288 288 287 287 287 287 286 286 286 285 285 285 285 285 285 284 284 284 284 284 284 283 283 283 283 283 282 282 282 281
290 291 291 291 292 292 292 292 295 298 303 304 299 293 292 294 295 294 295 295 295 295 295 294 294 293 293 293 293 292 290 290 291 291 291 294 294 291 289 288 288 288 289 289 290 289 289 290 289 289 289 289 289 289 288 288 288 287 287 287 287 287 286 286 286 285 285 285 285 285 284 284 284 284 283 283 283 283 283 283 282 282 282 281 281 281
289 290 290 291 292 292 291 293 295 299 302 300 296 293 292 293 294 296 296 296 297 297 295 294 294 294 293 293 293 291 291 292 292 291 293 296 294 290 289 288 287 288 289 290 289 289 290 290 289 289 289 288 288 289 289 288 288 287 287 287 287 286 286 286 286 285 285 285 285 284 284 284 284 283 283 283 283 282 282 282 281 281 281 280 280 280
289 290 290 290 291 291 292 293 293 294 296 295 294 293 292 292 295 297 298 299 301 300 296 293 293 294 293 293 292 291 292 294 293 293 294 294 290 288 288 288 287 287 289 290 290 290 290 289 289 288 288 288 288 289 289 288 288 287 286 287 286 285 285 286 286 285 285 284 284 284 283 283 283 283 283 282 282 281 281 280 280 280 279 279 279 279
288 289 290 290 290 290 291 293 292 293 294 293 294 294 292 292 295 297 299 300 302 302 297 293 293 294 293 292 292 291 292 293 293 294 294 291 290 289 288 288 289 289 289 290 290 290 289 289 288 288 288 289 289 289 289 288 287 286 286 286 285 285 286 286 285 285 284 284 283 283 283 283 282 282 281 280 280 279 279 279 279 278 278 278 278 278
290 289 289 289 290 290 290 292 292 293 293 293 293 293 292 294 296 297 298 298 300 301 298 293 293 294 292 291 292 292 292 293 292 293 293 292 292 290 287 287 288 288 288 289 289 289 288 288 288 288 288 289 289 289 289 288 287 286 286 286 285 286 286 285 284 284 283 283 283 282 282 282 281 280 279 279 278 278 278 278 277 277 277 277 277 277
293 293 291 289 289 290 290 290 292 295 295 292 292 292 291 294 299 299 297 297 298 299 298 295 293 293 292 292 292 291 292 292 291 291 291 291 290 288 286 287 287 287 288 288 288 288 288 287 287 288 288 289 289 289 288 288 286 286 286 285 286 286 285 284 283 283 283 282 282 281 280 280 279 278 278 277 277 277 277 276 276 276 276 276 276 276
293 295 296 292 291 292 291 290 292 296 295 292 294 297 294 293 296 298 297 296 296 297 297 294 293 292 291 292 292 292 291 291 291 291 290 290 289 287 286 286 286 286 287 287 288 289 288 287 287 287 288 289 289 288 288 287 286 286 285 285 286 285 284 283 283 282 281 281 280 279 279 278 278 277 277 276 276 276 276 275 275 275 275 275 275 275
295 296 299 297 294 294 294 294 294 296 294 291 294 297 296 293 294 294 294 294 294 294 294 293 293 292 291 290 291 291 291 290 290 290 290 290 289 288 287 286 286 287 287 287 288 288 288 287 287 287 287 288 288 288 288 287 286 285 284 285 285 284 283 282 281 280 280 279 278 278 277 277 276 276 276 275 275 275 274 274 274 274 274 274 274 274
295 295 297 298 297 295 296 296 296 296 296 294 293 293 294 294 293 293 292 292 293 293 292 292 292 292 291 291 291 290 290 290 290 290 289 289 289 287 286 286 286 287 287 287 287 288 288 287 287 286 286 287 288 288 288 286 285 284 284 284 283 282 281 280 279 279 279 278 277 277 276 275 275 275 275 274 274 274 274 273 273 273 273 273 273 273
295 294 295 296 297 297 297 297 297 296 297 296 295 295 294 293 293 292 292 292 292 292 292 292 291 291 291 290 290 290 290 290 290 290 290 290 289 287 286 286 286 286 287 287 287 288 287 286 286 286 286 286 287 287 286 285 284 284 283 283 281 280 280 279 278 278 277 277 276 276 275 274 274 274 273 273 273 272 272 272 272 272 272 272 272 272
296 295 294 295 295 296 296 297 297 297 296 296 296 296 295 295 294 293 293 292 292 292 291 291 291 291 291 290 290 290 290 290 290 290 289 290 289 288 286 286 287 287 287 287 287 287 287 286 286 286 285 285 286 286 284 284 283 283 282 281 280 279 279 278 278 277 276 275 275 274 274 273 273 272 272 272 271 271 271 271 271 271 271 271 271 271
296 294 295 295 295 295 296 296 296 296 296 296 295 295 295 295 295 295 295 294 293 292 292 291 290 290 290 290 290 290 290 290 290 289 289 289 289 288 287 287 287 287 287 287 287 287 286 286 285 285 285 285 285 284 283 282 282 281 281 280 279 278 278 277 276 276 275 274 273 273 273 272 271 271 271 270 270 270 270 270 270 270 270 270 270 270
297 295 295 295 296 296 297 296 296 296 297 297 296 296 295 295 295 295 295 294 293 293 293 292 291 290 290 290 290 290 290 290 290 289 289 289 288 288 288 288 287 287 287 287 287 287 286 286 285 285 285 284 284 283 282 281 281 280 280 279 278 277 277 276 275 274 274 273 272 272 271 271 270 270 269 269 269 269 269 269 269 269 269 270 270 270
297 297 296 296 297 298 297 297 297 297 297 297 297 297 296 296 295 295 294 294 294 294 293 293 293 292 291 290 289 289 290 290 289 289 289 289 288 288 288 288 287 287 287 287 286 286 285 285 285 284 284 283 283 282 281 280 280 280 279 278 277 276 275 274 273 273 272 271 271 270 270 269 269 269 268 268 268 268 268 268 268 268 269 269 269 270
Wind_Speed
3 7 9 6 7 7 5 5 5 3 2 2 2 2 4 3 4 4 2 5 4 7 7 9 13 12 13 14 13 12 15 17 16 15 14 13 13 12 13 14 15 16 15 18 23 27 29 31 33 37 42 49 52 51 50 49 48 48 48 44 40 38 36 31 25 24 22 14 9 9 11 15 18 20 22 24 26 25 27 28 28 30 31 31 31 31
5 11 8 6 6 6 4 4 6 5 2 1 1 2 3 1 4 4 4 5 4 6 5 9 16 13 12 14 13 12 16 17 14 13 14 14 13 12 13 15 14 12 13 17 22 25 29 31 34 38 43 47 46 46 48 46 44 46 50 49 46 43 41 36 32 28 26 23 18 13 8 9 14 16 16 16 19 21 24 24 22 25 27 30 31 31
8 10 7 7 6 4 3 3 5 5 2 2 1 2 2 0 3 3 4 4 4 4 4 10 15 11 10 13 13 14 14 13 13 12 12 12 12 13 14 14 13 12 13 16 20 23 26 29 32 35 38 41 40 41 44 42 41 45 47 48 48 46 44 40 36 31 29 26 22 19 16 12 10 10 11 10 12 16 22 24 23 24 24 25 28 30
7 5 6 5 5 6 6 5 6 5 2 2 2 1 2 2 1 2 2 5 5 2 4 8 11 8 8 10 11 12 11 11 13 11 10 10 12 13 13 13 14 15 15 15 17 20 24 27 30 32 32 35 37 39 41 40 39 41 42 44 45 46 45 43 40 36 34 28 23 21 19 17 16 17 18 17 16 13 14 19 23 26 25 24 24 25
4 4 5 5 7 7 5 6 7 6 5 3 2 1 3 4 3 2 1 3 4 2 3 4 6 6 8 9 9 8 7 9 11 10 10 9 10 12 12 13 14 14 14 14 15 17 23 25 27 29 29 31 35 36 36 37 37 38 40 40 41 43 45 46 43 39 39 36 30 26 23 22 22 24 27 28 29 27 22 18 14 14 18 20 22 23
2 3 4 7 8 7 6 6 5 4 4 4 2 2 4 4 2 2 0 1 1 3 4 3 2 4 5 7 8 6 6 9 8 9 10 10 10 12 12 12 12 12 12 13 14 16 20 24 25 28 30 30 32 32 32 33 34 36 39 39 40 39 39 43 44 42 41 41 40 38 33 31 31 31 30 29 29 30 30 27 22 17 16 17 16 15
3 5 4 5 6 8 8 6 4 3 4 3 2 2 4 2 1 4 1 2 2 1 3 3 2 2 2 5 7 7 7 8 7 9 10 9 10 11 11 11 10 10 10 11 13 15 18 22 24 26 28 29 28 28 29 30 32 34 36 38 38 38 36 37 41 43 43 40 40 41 36 32 32 30 28 27 28 30 30 29 27 24 24 25 25 22
3 7 6 6 7 8 7 6 5 5 4 3 5 7 4 2 2 2 1 4 3 2 1 5 3 3 2 5 7 7 6 7 9 10 10 9 9 10 10 9 10 9 8 8 9 13 18 20 22 23 25 26 26 27 28 29 30 31 32 34 35 36 37 37 39 41 41 38 37 38 36 33 32 28 26 28 31 33 33 33 31 29 28 28 27 26
2 4 7 7 8 6 5 7 8 5 2 4 7 8 3 4 4 1 3 5 3 2 3 4 2 3 2 4 5 6 6 6 8 8 9 9 8 8 8 8 8 7 7 9 8 11 16 19 20 22 23 25 27 27 29 29 30 29 30 32 33 34 35 35 37 39 39 37 37 37 35 34 33 29 26 28 34 36 35 35 35 34 33 32 30 29
2 3 3 2 6 6 7 9 7 4 2 7 6 5 3 5 4 1 2 4 2 2 3 4 2 2 1 3 4 4 4 4 5 5 6 6 5 6 6 6 7 6 6 8 11 13 16 18 19 21 23 26 27 28 29 30 31 31 30 31 33 33 32 33 34 36 37 38 38 37 35 33 32 31 29 30 36 37 35 36 38 37 37 37 35 34
4 4 2 2 3 5 7 7 4 2 5 6 3 3 3 4 3 2 2 2 2 3 3 4 2 1 1 2 2 1 2 4 3 2 3 4 4 4 5 5 5 5 5 7 10 13 15 17 19 21 24 25 26 28 30 31 31 32 32 32 33 32 32 33 33 34 35 35 36 36 35 33 32 32 32 32 34 35 35 35 36 35 36 38 39 38
6 5 3 1 2 3 5 5 3 4 6 5 4 3 3 3 3 4 4 4 5 2 2 3 3 2 1 1 2 2 3 4 3 1 1 3 4 3 3 4 4 4 5 5 7 10 13 16 19 22 24 24 26 28 29 30 31 32 32 32 33 33 33 33 34 34 33 33 33 32 32 32 31 31 32 32 32 34 34 33 34 33 34 37 38 38
4 2 4 5 3 6 7 6 7 7 8 8 5 5 4 3 4 4 4 3 2 1 2 2 3 3 0 3 4 3 4 4 3 1 1 1 3 4 4 3 3 3 4 4 5 8 11 14 17 20 21 22 24 26 26 27 29 30 31 30 31 32 32 32 33 33 33 33 32 30 30 30 30 31 32 33 32 33 33 32 33 33 33 34 34 34
4 4 6 7 5 5 6 5 6 6 6 7 4 4 4 2 4 2 3 3 1 3 3 2 3 1 2 4 5 5 5 5 3 2 2 2 1 2 3 3 3 3 4 4 4 6 10 13 16 18 20 21 23 24 24 25 27 29 30 30 30 30 31 31 32 32 32 32 32 31 31 30 31 32 32 32 31 31 32 32 32 32 31 32 33 33
3 4 4 5 2 4 5 2 2 4 3 4 0 4 4 3 3 1 2 0 2 4 4 3 3 2 2 2 4 5 4 4 3 3 2 2 2 2 2 2 3 2 3 3 3 5 9 12 14 16 18 20 21 22 24 24 25 27 28 29 29 29 30 30 31 31 31 31 31 31 31 31 31 30 30 30 30 30 30 31 31 31 31 32 33 34
2 4 5 2 3 1 5 3 3 1 1 2 1 4 2 1 3 2 3 3 2 2 3 2 0 4 3 3 4 2 2 4 2 0 1 2 3 2 2 2 2 1 2 2 2 4 7 10 12 14 16 18 19 20 22 24 24 24 26 28 28 28 29 29 29 30 29 29 29 30 31 31 31 31 30 30 29 29 29 29 29 29 30 32 32 33
2 4 5 5 3 2 4 4 3 4 0 2 3 2 3 2 5 2 1 1 1 1 3 1 1 3 2 3 5 3 3 5 4 3 2 4 5 4 3 4 3 2 2 2 1 3 5 8 12 14 16 18 19 20 21 22 23 22 23 25 27 27 28 28 28 28 28 29 29 29 29 29 30 30 30 29 29 29 29 29 29 29 30 32 32 33
0 4 5 3 3 4 2 1 1 3 2 2 3 2 3 1 3 2 1 4 4 1 3 2 2 3 1 1 4 4 5 7 6 5 5 5 5 4 4 5 4 4 3 2 1 2 4 7 11 14 16 16 18 18 19 21 22 22 22 23 25 26 27 27 27 28 28 28 28 28 28 28 28 28 28 28 28 28 29 29 29 30 31 32 32 33
1 3 5 1 1 7 5 3 2 5 4 3 1 1 1 3 3 2 3 2 3 2 4 5 3 2 3 3 3 6 8 8 7 6 5 5 5 5 5 5 5 5 4 3 2 1 3 6 9 12 14 14 15 16 17 18 20 21 21 21 23 25 25 25 25 27 27 27 27 27 27 27 26 26 27 27 27 28 29 29 29 29 30 32 33 34
1 1 3 3 2 5 5 4 2 5 6 3 3 3 2 3 2 1 2 1 1 0 3 4 5 2 4 4 5 9 10 8 7 6 6 6 6 5 5 5 5 5 4 4 4 3 0 3 6 9 11 12 14 15 15 16 18 20 20 20 21 23 25 25 25 25 26 26 26 27 27 27 26 26 27 26 26 27 28 29 29 29 30 31 32 34
1 2 3 6 5 3 2 2 1 1 3 3 4 4 3 2 2 1 1 2 3 2 1 1 4 5 5 3 6 9 8 8 8 7 7 7 6 6 5 5 5 5 5 5 5 4 2 2 3 6 8 10 11 13 15 15 17 18 19 19 19 21 24 25 25 24 25 26 25 26 26 26 27 26 27 27 27 27 28 29 29 29 30 31 32 34
1 1 2 4 5 2 2 2 1 2 2 2 2 2 0 1 3 3 2 3 2 2 3 2 3 7 5 3 5 7 7 8 8 7 7 7 7 7 6 6 5 5 5 5 6 7 5 3 1 3 6 7 10 12 13 15 16 18 19 19 19 19 22 24 24 23 24 25 25 25 25 26 26 27 27 28 28 28 29 30 30 29 30 31 32 33
1 2 0 3 4 3 5 4 1 1 2 3 1 2 3 2 4 5 2 3 1 1 1 3 2 7 6 3 5 6 7 7 7 8 7 7 7 7 7 7 6 5 5 6 8 9 7 5 4 1 3 6 8 9 11 12 15 17 19 19 19 20 21 23 23 22 23 24 24 24 24 25 26 27 27 27 28 29 30 31 31 31 31 31 31 33
2 2 1 4 4 4 6 5 2 2 1 2 1 1 3 2 3 4 4 2 0 2 1 2 3 7 5 3 3 3 4 5 5 7 8 7 6 6 7 7 6 5 6 6 9 11 9 7 6 4 3 4 5 6 8 10 12 14 17 18 19 20 21 23 24 23 24 25 25 25 24 25 25 26 28 28 27 28 29 30 31 31 32 32 32 33
0 0 1 3 5 6 6 6 5 5 2 1 3 2 2 3 4 3 1 3 0 4 5 4 4 7 4 4 2 1 3 5 6 6 7 7 6 7 7 6 6 6 6 6 7 9 10 10 9 7 5 4 3 4 5 7 8 10 13 15 17 18 20 21 22 23 24 25 26 27 26 25 26 26 28 28 28 28 28 29 30 31 32 32 33 34
1 1 2 3 1 3 3 4 3 3 2 2 2 2 3 4 4 2 1 3 2 4 5 5 6 6 5 4 3 3 4 6 7 6 5 6 6 7 6 6 6 6 6 7 6 7 9 11 12 10 8 6 5 4 5 6 8 10 12 15 16 17 18 19 20 20 22 23 25 26 26 26 26 26 27 28 28 29 29 29 29 30 31 31 32 34
3 1 3 5 5 5 4 5 2 1 2 5 4 3 4 4 2 3 3 3 4 3 3 8 9 9 11 8 5 6 6 6 8 7 6 7 7 7 7 7 7 6 7 7 6 6 8 10 13 14 12 9 7 6 6 7 8 10 12 16 17 17 17 19 20 21 22 23 25 26 26 26 26 26 27 28 28 29 29 30 30 31 31 30 30 32
4 2 4 6 8 9 6 8 7 5 6 8 8 7 7 7 5 5 6 6 4 3 5 8 6 8 14 9 6 8 7 7 8 8 7 7 7 8 7 7 8 8 7 7 6 6 7 8 13 16 15 12 10 9 8 8 8 9 11 14 16 16 16 17 18 21 22 23 25 26 27 27 27 27 27 28 29 29 29 29 30 32 33 33 31 30
5 3 4 3 6 10 9 10 11 9 8 9 11 12 10 8 9 11 12 8 7 6 10 6 4 8 13 10 7 9 8 7 8 8 8 8 7 8 8 8 9 9 9 8 7 7 7 8 12 16 17 16 12 11 11 10 10 10 11 14 16 16 16 16 16 18 18 19 21 23 25 26 26 27 27 28 30 31 31 31 31 33 34 34 33 32
3 2 3 1 6 10 10 10 10 9 8 9 12 14 12 11 13 15 15 11 11 14 17 12 10 14 16 15 14 11 7 7 8 7 7 8 8 9 9 10 10 11 10 10 9 8 8 11 14 16 18 18 15 14 13 13 13 13 13 15 16 16 17 16 16 17 17 18 19 20 22 23 24 25 25 26 28 28 30 31 32 34 35 35 35 34
1 2 1 2 4 8 6 4 5 5 7 10 15 16 14 13 13 14 14 12 11 15 18 16 14 17 18 15 13 11 7 6 8 9 9 9 9 9 10 10 10 10 10 10 9 8 9 12 14 15 17 19 18 16 16 16 16 16 16 17 17 17 17 17 17 18 18 19 19 20 22 23 24 25 25 26 27 27 28 29 30 32 34 35 36 36
1 2 2 5 4 7 3 4 6 6 7 11 18 21 17 13 11 11 11 11 11 12 13 9 8 13 15 8 5 7 7 7 9 10 9 9 9 9 10 10 10 11 11 10 9 8 9 12 14 16 19 21 19 17 17 18 18 18 18 19 19 18 17 17 18 18 19 19 20 21 23 24 25 26 26 27 28 28 28 29 29 30 32 34 35 36
2 1 1 2 2 6 5 4 6 7 8 9 11 12 9 9 9 7 6 10 13 11 7 7 9 11 9 3 4 7 7 7 9 10 9 9 9 9 10 11 11 11 11 10 9 9 10 14 17 18 19 20 19 18 19 20 20 20 20 20 20 19 18 18 18 19 20 20 20 21 23 25 26 27 28 28 29 29 29 28 29 30 32 33 34 35
3 3 1 2 2 5 7 6 6 5 5 6 4 3 3 6 10 10 7 10 14 11 8 8 9 9 7 6 8 9 8 8 8 9 9 8 7 8 9 11 11 10 10 9 9 11 14 17 19 18 18 19 19 20 21 21 21 21 21 21 20 20 19 20 19 20 22 21 20 22 24 26 27 28 29 30 30 30 29 29 30 31 31 32 33 33
3 3 2 2 2 4 5 5 4 4 7 7 7 6 6 6 8 9 8 11 12 12 12 13 12 12 12 10 9 9 10 9 7 9 10 8 7 9 9 10 11 10 9 9 9 12 17 19 18 18 18 19 20 21 22 22 21 22 21 20 20 20 20 21 21 22 22 21 21 23 25 26 28 29 30 31 31 31 30 30 31 31 30 31 31 32
5 3 2 2 2 2 3 1 2 6 9 13 15 10 6 5 4 4 7 15 16 13 13 14 15 16 14 12 11 10 8 6 5 9 11 8 8 9 9 10 10 10 11 12 13 17 20 20 20 19 20 20 21 21 22 22 22 22 22 21 21 22 22 22 23 23 23 22 23 25 26 27 28 30 31 31 31 31 31 31 31 30 31 31 31 32
5 5 2 2 2 2 2 3 4 7 12 12 9 3 3 5 5 4 3 11 13 9 9 11 13 15 14 13 14 9 3 1 4 8 9 8 9 11 12 13 13 13 16 19 21 22 22 21 21 21 21 22 22 21 22 23 23 23 23 22 22 23 23 23 24 25 24 24 25 26 26 27 28 30 30 30 29 29 30 30 30 31 32 32 33 34
3 4 4 3 2 1 0 4 4 5 6 5 2 2 1 3 6 6 1 7 10 7 9 10 11 14 13 12 12 6 1 0 5 8 7 7 9 10 12 16 18 19 21 23 24 23 23 23 23 23 22 22 22 23 23 24 24 24 24 24 24 24 24 25 26 26 26 26 26 25 25 26 27 28 28 28 28 28 29 30 31 33 34 33 35 36
2 3 3 3 1 2 1 3 2 4 6 4 2 2 2 3 5 5 3 8 8 7 10 11 12 13 12 12 10 4 3 4 7 6 6 7 9 10 11 14 19 22 24 26 25 24 25 26 25 23 22 22 23 24 24 25 25 25 24 26 26 25 26 27 27 28 27 26 24 23 23 24 25 26 26 27 28 29 30 32 34 34 35 34 35 37
2 3 3 4 3 3 3 4 4 6 8 5 3 3 3 3 5 6 5 8 6 6 9 11 12 13 12 11 8 5 4 7 7 7 8 8 10 13 14 15 18 22 25 27 27 27 28 27 24 23 23 24 25 25 25 25 26 25 26 27 26 26 27 29 29 28 25 22 21 21 22 23 24 25 27 28 30 32 33 34 35 36 36 36 36 37
2 3 4 5 5 6 7 6 6 6 8 9 7 6 5 2 5 2 6 7 5 6 7 8 11 13 11 9 6 5 7 10 9 9 8 6 7 11 16 20 23 23 25 26 27 27 28 26 25 25 25 26 26 25 26 27 26 26 28 28 26 27 30 30 28 23 20 19 20 21 22 23 25 27 29 30 32 34 34 35 36 36 37 37 37 36
3 3 4 4 4 5 6 6 7 7 9 9 8 8 6 3 1 5 6 3 4 6 6 7 10 11 10 9 9 8 9 11 11 10 9 7 7 10 15 20 21 22 24 26 26 26 27 26 25 26 27 27 27 26 27 28 27 28 29 27 28 30 31 27 21 18 17 19 20 22 24 26 28 30 31 32 32 33 34 36 36 37 37 37 37 37
6 4 3 4 5 4 3 3 6 7 5 6 10 7 5 6 6 5 3 2 4 6 6 7 9 9 9 10 10 11 11 11 10 10 10 9 9 11 16 19 19 21 25 26 27 28 29 27 26 27 29 28 28 28 28 28 28 29 28 28 30 30 26 20 17 17 18 21 22 25 27 29 30 31 31 32 32 33 35 37 36 37 37 37 37 37
6 6 3 3 5 5 4 6 7 4 3 9 10 6 8 12 9 4 3 5 5 4 5 6 7 9 10 10 11 12 11 10 11 10 10 10 10 11 15 19 21 23 25 26 29 31 30 27 27 28 30 29 29 29 28 28 29 28 27 28 29 24 18 16 17 19 21 24 25 27 29 30 30 31 31 32 33 33 34 36 36 36 37 37 37 37
11 12 6 4 6 7 8 11 10 3 4 9 9 5 7 12 11 7 7 7 7 5 5 5 7 9 10 11 12 11 9 10 11 11 10 11 11 12 15 20 23 25 26 28 30 31 31 30 30 29 29 29 29 30 30 29 27 26 26 26 23 18 16 18 20 21 24 26 27 28 30 30 31 31 32 32 33 32 33 34 35 36 36 36 36 36
13 10 4 4 4 6 12 15 14 13 12 12 11 9 8 11 10 8 8 8 8 8 6 6 8 10 10 10 10 9 10 11 11 11 11 11 11 13 17 20 22 25 27 27 29 32 32 31 29 28 28 29 30 30 30 28 24 23 23 21 17 16 18 20 21 23 25 26 28 29 29 29 31 32 33 33 33 32 33 33 33 35 36 36 36 36
8 7 6 7 3 4 12 13 13 18 19 14 11 12 12 13 12 10 9 10 11 11 10 9 11 11 10 10 10 11 12 12 11 12 11 10 10 12 16 19 21 24 27 28 30 33 31 27 26 26 26 28 30 29 26 23 20 18 16 16 16 18 20 21 22 24 25 26 27 28 28 29 31 33 33 34 33 32 32 33 34 34 35 36 36 35
4 7 9 11 10 12 16 17 16 19 17 10 10 11 11 13 14 12 11 12 12 12 12 13 13 11 10 10 12 14 14 13 13 14 12 10 10 11 14 19 23 25 28 30 31 31 28 25 26 26 25 26 27 24 19 15 14 12 13 16 19 19 20 21 22 23 25 26 27 28 29 30 31 32 33 33 33 32 32 34 35 35 36 38 37 35
4 6 6 6 10 14 17 20 21 20 16 12 15 17 16 16 17 16 14 14 14 13 14 15 15 14 13 14 13 14 15 14 13 14 14 12 10 12 16 21 24 26 27 29 31 29 27 26 26 24 24 25 23 17 12 11 10 12 15 18 19 18 19 21 22 24 25 26 26 28 29 29 30 31 31 32 33 34 34 35 35 35 38 43 42 37
5 9 5 4 10 14 15 17 14 12 13 12 13 16 18 16 15 15 15 14 14 15 15 15 16 16 17 18 16 14 14 14 14 14 14 12 12 16 21 23 24 25 27 28 29 27 25 24 23 22 22 21 16 12 10 10 12 15 17 18 18 18 19 21 22 24 26 26 27 28 28 29 30 30 31 31 32 33 36 39 39 36 36 40 43 41
11 14 10 9 15 18 18 16 10 9 13 14 10 11 12 10 10 12 14 14 14 15 14 14 14 14 14 16 18 17 13 13 16 16 14 13 18 23 24 24 24 24 26 26 24 22 21 20 19 18 17 15 11 10 11 12 14 16 18 18 18 18 20 20 21 23 26 26 27 28 28 28 30 30 31 32 32 32 34 39 44 44 41 38 38 40
Wind_Direction
17 54 40 15 357 342 336 12 10 323 289 265 276 296 286 291 296 286 18 341 348 70 44 56 61 40 32 21 13 23 32 35 32 33 34 32 39 37 38 42 41 44 41 37 38 35 36 38 37 38 40 41 42 39 38 40 37 33 34 35 32 29 28 26 24 22 23 20 340 299 249 238 244 244 243 243 246 239 228 228 227 225 225 224 223 221
30 51 28 343 329 305 307 358 3 351 351 359 240 257 293 245 281 290 81 12 351 84 52 61 64 41 33 30 13 20 38 35 23 30 37 33 39 40 38 40 42 46 40 37 39 36 36 38 39 41 40 41 42 38 37 38 34 33 36 35 33 32 30 30 31 27 23 24 19 7 341 292 271 268 271 268 263 252 242 240 233 226 228 226 223 223
41 43 349 324 325 321 357 14 6 351 322 356 307 237 326 281 271 296 85 30 354 90 63 61 66 44 27 35 26 23 36 41 24 19 29 35 41 42 39 38 39 40 36 33 33 32 33 36 39 41 41 42 42 40 38 36 33 34 35 34 34 35 32 32 36 34 27 29 36 40 32 10 347 335 328 312 293 273 262 258 243 233 235 231 228 228
49 15 323 324 352 17 17 358 12 9 338 359 329 294 338 332 344 344 50 9 345 112 102 69 71 54 23 30 37 30 26 40 37 20 15 30 43 46 43 40 39 38 34 31 29 28 30 33 36 39 40 40 41 41 38 36 34 34 34 33 33 34 33 34 38 36 31 34 43 50 51 49 45 35 29 28 19 350 301 279 257 245 246 243 240 240
72 308 316 354 14 28 16 356 22 21 354 334 282 287 333 332 356 332 8 7 344 52 62 42 56 45 20 17 28 28 18 30 39 30 19 24 41 48 45 40 40 39 36 33 29 25 28 32 34 36 38 39 40 40 37 37 35 34 35 35 34 34 33 35 39 38 34 35 41 44 45 44 41 34 31 29 24 22 14 352 318 282 274 270 264 258
47 307 354 10 359 14 16 5 27 31 352 326 265 241 294 309 322 308 241 142 44 29 0 343 69 43 8 15 17 8 21 28 29 38 34 24 32 42 43 39 36 37 36 34 31 26 28 31 33 35 36 37 38 37 36 37 37 36 36 36 36 34 32 33 37 40 37 35 39 43 39 34 30 25 24 20 15 19 22 18 18 19 7 354 337 309
352 337 33 33 353 8 14 359 6 26 10 338 317 308 295 283 293 316 302 152 101 56 327 331 98 98 3 20 11 348 16 31 22 35 42 34 32 36 40 39 33 31 30 32 30 27 30 32 33 35 35 37 38 36 37 38 37 37 35 36 37 35 34 34 36 40 40 36 38 43 41 36 32 24 20 18 19 23 22 20 25 29 25 24 21 13
330 338 5 23 6 13 11 346 339 6 17 312 334 353 351 122 133 339 60 118 120 167 346 7 48 90 31 11 1 339 357 29 25 26 35 39 39 35 34 36 36 32 28 31 30 28 31 33 34 37 37 38 38 37 37 38 38 37 35 35 36 35 35 35 37 40 41 38 38 41 41 38 35 26 18 18 24 28 24 21 25 25 21 22 23 21
283 337 345 4 10 9 352 322 312 348 23 273 320 352 9 112 120 76 110 125 144 148 54 4 359 68 27 337 348 343 347 18 24 18 20 32 42 41 36 33 36 36 33 36 36 33 34 34 36 38 39 39 38 37 37 37 38 37 36 35 35 35 33 33 36 38 40 40 39 39 38 36 34 28 20 20 26 29 24 20 24 23 18 17 18 18
262 252 288 25 24 353 321 308 305 350 329 276 313 7 51 77 81 54 99 137 159 98 41 328 289 96 50 315 331 344 342 356 16 16 7 14 31 42 44 38 34 35 36 37 37 37 37 37 38 39 40 40 38 37 38 37 37 36 35 35 35 34 32 31 33 35 37 38 38 38 35 33 31 27 22 22 26 27 23 21 22 20 15 14 15 14
296 279 270 96 30 329 303 298 283 285 290 290 338 45 44 44 58 32 30 105 86 47 2 314 295 126 101 297 298 314 295 294 327 27 358 352 12 27 41 42 32 31 35 36 37 38 39 38 39 40 40 39 37 37 38 37 36 36 35 34 34 33 32 31 32 34 35 35 36 36 34 31 29 26 24 23 23 22 22 21 21 18 13 13 14 13
338 355 357 291 333 346 326 325 330 325 333 358 31 59 39 357 15 19 356 35 63 24 276 283 331 54 83 236 233 263 278 289 322 48 33 352 359 2 29 42 31 27 27 30 35 34 35 35 35 37 37 36 36 36 37 36 35 36 35 34 33 32 31 31 32 34 34 34 34 32 32 31 29 27 26 25 23 21 20 19 18 17 13 12 13 11
342 347 337 325 349 20 9 351 348 348 0 14 20 51 62 1 12 19 342 8 56 278 260 280 342 38 347 251 228 253 279 286 313 342 81 20 357 352 5 20 21 26 23 24 32 29 31 33 32 33 34 34 35 35 36 36 35 35 35 34 34 32 30 30 31 33 33 33 33 31 30 29 28 28 27 26 24 21 19 18 17 16 13 10 10 9
336 310 348 8 354 9 39 30 347 334 353 5 14 71 91 85 45 16 312 345 309 278 295 333 8 42 297 280 217 213 244 247 242 213 187 181 209 324 328 345 357 10 21 24 29 30 33 34 34 34 33 34 35 35 36 36 35 35 34 34 34 31 30 30 30 31 32 32 31 30 29 28 27 27 26 25 23 20 19 18 17 15 12 9 7 6
24 325 348 32 326 337 40 63 256 253 299 339 62 110 99 126 114 160 226 262 281 288 303 346 23 186 227 285 217 205 240 249 221 185 184 194 207 237 275 331 354 350 5 16 24 36 39 39 38 37 36 36 37 37 37 37 36 35 34 33 32 31 29 29 29 29 30 29 29 29 29 28 27 26 26 25 23 20 18 17 16 14 11 9 7 5
72 275 276 296 249 349 19 306 263 192 267 301 96 87 46 158 140 146 183 190 222 308 317 337 268 217 220 280 258 236 291 286 274 305 1 308 281 312 330 318 321 326 344 1 24 37 42 44 42 39 39 37 38 38 38 37 36 35 34 32 32 31 29 28 28 28 27 27 27 28 27 26 26 25 24 23 21 20 18 17 15 12 10 8 6 4
41 274 288 332 318 33 32 304 325 45 345 304 41 54 279 212 139 123 298 296 84 52 295 300 266 283 320 292 258 227 255 277 273 265 265 270 285 310 306 288 294 309 322 326 356 33 42 45 41 39 38 36 35 36 36 36 35 34 32 32 31 30 28 27 26 26 26 26 26 26 26 25 24 23 22 20 19 17 16 15 13 11 9 7 5 3
155 284 296 0 339 311 336 244 351 39 82 75 31 300 279 51 88 96 30 357 28 40 285 307 294 290 336 303 258 221 232 254 251 242 246 265 281 279 265 266 268 267 275 294 312 40 51 47 41 38 37 36 34 33 33 33 32 31 30 29 29 28 26 25 24 23 23 23 23 23 23 23 21 20 19 18 17 15 14 13 11 9 6 5 4 2
191 304 295 218 244 294 333 64 12 344 26 87 87 289 63 69 16 17 66 25 14 352 302 310 313 267 208 223 229 212 222 232 234 240 245 254 255 252 261 263 263 269 275 279 286 332 56 53 42 36 34 34 33 31 30 29 27 28 27 24 25 24 24 23 22 21 21 21 21 21 20 21 20 17 16 16 15 13 12 10 8 7 4 3 3 1
196 70 284 270 266 299 347 51 28 326 340 12 34 17 51 116 141 33 62 98 134 333 306 319 332 286 224 217 196 205 216 211 217 230 227 232 236 236 247 252 255 261 256 255 259 258 108 75 50 37 34 31 30 27 25 24 22 23 22 20 19 18 19 19 18 17 17 17 17 17 18 18 17 15 13 13 12 10 10 8 6 4 2 0 1 360
33 90 249 292 335 1 359 30 90 303 329 357 31 24 0 11 83 85 37 88 120 136 213 322 314 277 247 209 188 205 212 200 202 210 214 226 232 233 238 240 246 248 247 251 241 234 222 136 73 42 37 34 30 26 23 21 18 18 18 16 13 13 14 14 14 13 12 12 12 12 13 13 13 12 10 9 9 7 5 5 4 2 359 358 358 358
57 101 224 300 339 1 246 252 198 211 189 138 98 86 127 357 70 81 335 322 76 135 169 157 280 273 261 213 199 202 198 200 202 196 206 223 224 230 241 236 234 233 236 246 237 228 225 209 190 33 31 33 31 25 22 19 15 14 13 10 6 6 8 8 8 8 7 7 7 7 7 8 8 7 7 6 5 3 2 1 0 359 357 356 356 355
122 94 130 276 284 269 271 288 6 258 169 133 120 121 139 129 99 115 202 271 333 357 168 132 254 271 265 230 216 205 191 196 196 188 200 221 223 226 237 242 245 241 236 241 239 232 226 220 225 282 8 23 26 20 18 16 13 13 11 8 3 359 1 1 1 2 2 1 2 2 2 3 3 3 3 3 1 360 359 357 357 356 354 353 352 351
75 72 2 289 300 314 309 322 9 5 55 108 295 77 127 146 127 140 172 172 197 272 159 116 260 267 278 280 238 211 203 200 197 196 199 210 227 230 233 242 247 248 251 252 245 240 235 229 228 242 305 354 8 8 9 8 8 10 8 7 3 356 354 355 355 355 355 356 356 356 357 358 358 357 358 358 357 357 356 354 354 353 351 349 348 348
27 101 63 6 344 343 345 346 342 339 356 213 260 263 172 144 106 94 98 91 339 236 161 144 245 250 276 319 306 220 219 219 218 214 204 206 222 230 231 236 238 243 255 260 254 249 242 236 233 242 272 306 326 335 346 352 356 1 3 6 3 355 351 352 352 350 350 350 351 351 352 352 352 352 353 353 352 351 351 351 351 350 349 347 345 343
140 184 118 89 1 309 313 300 289 304 307 274 260 226 183 146 120 105 65 91 246 238 163 169 231 256 284 301 281 243 224 230 241 240 234 230 225 227 231 230 231 235 240 246 249 245 241 238 234 236 248 260 271 290 310 326 338 345 350 355 355 349 346 347 346 345 344 343 343 344 346 347 346 346 347 348 348 347 345 345 346 346 346 345 341 340
99 233 202 178 207 227 242 255 264 12 301 272 263 234 221 229 203 131 119 169 204 197 204 224 234 267 280 265 241 244 231 227 244 246 246 247 239 237 236 229 230 228 228 237 241 240 244 242 236 233 234 240 248 261 283 305 319 328 335 341 342 338 337 343 344 343 341 339 337 338 340 342 341 340 340 341 341 342 341 341 341 341 342 341 338 335
93 298 242 207 232 249 265 278 290 306 272 260 263 250 231 236 219 171 191 207 159 128 258 248 210 241 267 255 213 231 238 230 236 239 240 245 242 240 236 231 235 234 233 237 237 238 242 240 241 237 232 232 237 244 260 280 292 302 315 325 328 326 327 334 339 339 339 337 334 335 336 337 337 335 335 335 335 336 336 336 336 336 337 337 334 331
115 259 248 208 252 264 270 274 276 276 263 257 262 257 239 219 202 205 222 209 159 197 247 247 175 230 262 266 231 225 228 229 235 233 233 239 240 239 236 231 232 233 234 235 233 234 231 234 246 244 235 231 232 238 251 263 273 283 298 310 315 314 315 320 323 327 330 329 328 329 330 331 331 331 331 331 332 333 333 332 332 332 333 333 331 329
123 246 258 264 279 272 262 260 262 269 273 268 261 255 243 226 215 222 235 224 206 232 251 257 263 265 267 267 262 256 240 235 248 250 244 244 239 233 229 226 229 231 230 230 231 234 233 239 250 250 240 231 228 237 250 259 268 275 285 296 301 301 303 305 306 310 314 316 320 322 321 320 322 323 323 324 325 326 326 327 327 327 328 328 327 326
254 265 310 38 313 287 279 282 272 265 274 278 273 263 244 227 224 227 234 231 222 239 252 255 263 270 267 260 261 268 256 236 250 256 252 249 239 229 226 226 230 233 231 231 232 234 240 246 252 253 241 229 229 240 251 259 266 270 277 285 289 291 294 294 294 298 302 305 312 315 312 310 311 312 312 313 314 315 315 316 318 319 320 322 322 321
205 270 2 47 345 285 299 360 326 296 290 279 274 269 251 223 215 220 220 216 210 221 238 243 242 255 262 258 244 253 241 225 240 247 246 247 238 225 226 231 234 233 230 230 231 234 243 246 247 250 241 230 233 245 255 263 266 266 271 279 282 284 286 284 285 291 295 300 307 311 309 307 305 305 305 306 306 306 307 307 307 309 311 313 314 314
147 155 12 56 308 274 286 334 326 324 318 281 261 262 244 204 198 213 225 221 214 207 206 213 224 242 256 247 230 245 233 221 235 239 236 240 235 227 231 236 236 234 228 225 228 233 239 241 246 249 241 233 237 253 265 269 267 268 273 279 281 279 277 277 281 287 291 295 302 307 308 306 304 302 302 303 303 301 300 299 298 300 303 305 307 307
149 129 145 181 223 270 287 321 340 329 295 267 242 206 187 185 191 202 225 228 215 205 213 231 245 258 260 235 230 242 240 228 231 236 232 226 223 230 238 239 238 235 228 226 230 236 240 245 249 246 236 236 249 265 273 273 270 272 277 279 278 274 272 274 279 284 287 291 299 305 306 304 303 302 301 302 302 299 296 294 293 294 297 299 300 300
154 135 168 191 196 269 302 352 355 255 233 258 283 256 208 185 185 200 247 260 233 217 229 246 256 258 255 248 236 240 249 248 247 251 245 225 213 227 238 240 237 230 229 234 234 238 243 245 242 235 234 245 261 271 275 275 274 275 276 277 277 274 273 276 279 282 284 288 296 303 304 303 302 301 301 301 299 297 294 292 291 292 294 296 296 295
163 156 190 189 185 274 319 66 220 265 282 289 290 270 202 168 170 200 268 271 256 232 224 236 248 252 256 260 255 248 253 263 269 265 257 234 217 224 229 230 228 220 223 230 231 238 245 242 234 234 242 255 266 271 274 277 277 275 274 275 273 272 274 276 279 282 285 288 296 301 302 302 302 300 300 299 297 295 293 291 291 292 294 295 294 293
167 167 190 202 199 233 254 230 262 318 314 296 289 288 150 163 179 175 239 263 260 240 213 223 243 251 254 258 261 261 271 321 289 273 260 233 218 222 222 223 225 224 227 234 240 245 248 244 239 242 251 260 266 271 275 278 276 272 270 271 271 271 273 275 277 281 285 289 296 300 301 302 302 299 298 297 295 292 291 290 291 293 296 296 294 293
196 191 189 198 204 143 277 284 309 329 299 271 258 289 272 169 160 142 122 282 269 235 202 207 231 243 246 253 258 256 105 269 273 270 254 226 219 222 224 228 231 229 232 240 245 246 244 241 242 247 255 261 265 271 276 277 274 269 267 267 269 270 271 273 276 281 285 290 296 299 300 302 301 299 298 296 294 293 291 292 293 294 295 294 293 292
242 230 199 213 238 101 145 260 255 251 260 247 181 234 242 167 141 102 7 292 267 227 201 200 220 235 238 245 245 198 144 259 273 272 249 226 221 219 219 229 232 233 237 243 245 245 243 243 245 251 257 259 263 271 277 276 272 267 263 265 268 267 268 271 276 282 286 290 295 297 298 299 297 296 296 295 294 294 294 294 294 295 295 293 291 290
222 225 201 210 216 190 212 252 241 242 254 246 193 195 212 182 96 63 323 279 250 223 208 195 212 231 231 236 233 182 197 249 262 262 245 222 220 222 219 223 231 234 240 245 247 247 246 245 248 252 255 258 265 275 280 277 271 263 261 265 265 263 266 272 279 284 286 288 292 294 294 295 293 293 294 295 295 295 295 295 295 295 295 293 291 289
232 238 218 209 208 202 215 251 265 254 254 245 213 181 175 117 73 93 253 250 210 218 219 190 207 229 227 223 218 193 213 233 242 256 249 211 213 232 230 233 238 241 245 249 251 250 246 246 251 254 257 263 270 275 277 273 266 260 262 263 261 263 272 278 281 282 284 287 290 292 292 293 293 294 295 295 295 295 295 295 295 295 294 293 292 290
202 232 221 193 193 199 208 247 278 281 266 242 199 164 154 142 184 218 231 221 175 204 217 199 209 226 223 217 218 216 226 233 238 251 252 226 220 235 239 242 245 248 250 251 251 251 249 249 252 255 260 266 270 273 275 270 262 260 262 261 262 270 277 280 280 281 285 289 291 292 294 295 296 296 296 295 296 295 295 295 295 294 293 292 291 290
182 201 213 170 175 187 184 231 260 275 263 168 137 132 179 204 216 221 223 234 204 199 207 211 215 221 222 221 226 230 235 239 242 247 249 243 238 241 245 247 247 249 251 252 251 252 252 251 253 256 261 266 269 271 272 268 263 262 262 261 268 276 279 279 281 285 288 290 293 294 296 297 297 297 296 296 297 296 295 295 294 293 292 291 290 289
185 193 198 167 175 171 169 204 224 236 178 161 156 165 207 215 225 225 220 250 251 216 205 219 225 226 223 225 232 237 238 242 244 245 246 247 247 246 248 249 248 250 251 252 253 255 255 253 253 257 260 264 266 269 270 268 264 263 263 266 273 279 279 281 287 290 292 294 297 298 299 299 298 298 297 297 297 296 294 294 293 292 291 289 288 287
203 195 199 210 197 193 208 225 234 231 173 196 215 228 219 227 239 240 237 256 264 241 218 223 235 235 229 231 238 242 241 240 241 242 245 248 249 249 250 249 249 250 252 253 255 257 256 254 255 256 258 261 264 268 270 268 265 263 266 270 276 280 283 289 293 294 296 299 300 300 301 300 299 299 299 298 298 295 293 293 292 290 289 288 287 285
219 203 225 253 216 228 246 243 246 254 245 231 238 250 247 247 251 249 247 253 254 249 241 235 242 244 238 235 239 242 243 243 245 246 248 251 253 251 251 251 251 251 253 254 255 256 255 255 255 255 256 260 263 266 268 268 265 264 266 271 279 287 291 295 297 297 298 300 300 301 302 301 300 300 300 299 297 294 292 291 289 288 287 286 284 283
233 201 229 248 222 245 256 245 236 246 251 250 251 252 249 250 250 246 246 250 253 254 250 245 247 250 246 239 239 244 245 246 251 255 253 251 252 250 249 251 252 252 251 251 253 255 254 253 253 253 254 258 263 266 268 268 263 259 264 278 289 294 296 297 298 298 299 299 300 301 301 301 300 300 299 298 297 294 292 290 287 286 285 284 283 283
211 183 211 232 228 234 252 258 254 253 254 254 257 259 258 256 255 251 246 248 253 256 254 251 250 250 250 246 243 247 252 251 254 260 259 254 251 251 249 250 251 252 252 252 254 254 251 249 251 252 253 257 264 269 266 258 253 259 277 291 295 296 297 298 298 298 298 298 299 301 300 300 299 299 298 297 296 293 291 289 287 286 284 283 283 282
146 186 192 215 234 242 253 260 263 268 269 255 247 253 258 259 260 260 256 254 254 255 255 254 250 245 247 249 247 251 257 256 253 258 260 258 256 253 251 251 251 251 253 254 256 254 251 249 250 251 254 261 265 263 252 244 257 279 292 296 296 296 297 297 297 296 297 298 300 300 300 299 299 298 296 295 294 292 290 288 286 285 285 286 285 281
176 225 207 209 247 251 251 247 247 262 270 256 240 244 250 254 257 260 260 258 256 255 254 255 253 248 247 248 249 251 256 257 255 256 258 258 257 256 255 254 254 253 254 255 256 255 253 253 254 254 257 260 257 247 246 260 279 292 295 293 294 296 295 296 297 297 298 300 301 300 300 300 298 297 296 294 293 293 293 292 290 285 281 283 286 284
216 229 210 220 245 251 254 252 239 241 261 265 260 250 246 243 243 249 253 255 255 256 255 256 258 257 254 252 249 246 249 255 255 256 259 259 258 259 259 257 254 253 254 254 253 252 251 251 251 250 249 249 246 249 263 276 286 293 293 291 292 295 295 296 298 298 299 300 300 299 300 299 297 296 295 293 292 292 293 295 295 293 288 283 282 284